{"data":{"norad_id":33331,"epoch":"2026-05-25T04:45:56.594016Z","epoch_age_seconds":67925,"freshness":"FRESH","line1":"1 33331U 08042A   26145.19857169  .00000408  00000+0  85621-4 0  9998","line2":"2 33331  98.1238 219.4206 0005332 124.8078 235.3627 14.64699775946783","mean_motion":14.64699775,"eccentricity":0.0005332,"inclination_deg":98.1238,"raan_deg":219.4206,"arg_perigee_deg":124.8078,"mean_anomaly_deg":235.3627,"bstar":8.5621e-5,"rev_number":94678,"period_min":98.313662948436,"perigee_km":674.27708045543,"apogee_km":681.80178700436,"semimajor_km":7056.1764337299,"source":"CELESTRAK","updated_at":"2026-05-25T13:38:12.774293Z"}}